User: anonymous   Login
Location: Unspecified
(0.0000°N, 0.0000°E)
Time: 21:03:34
(UTC+00:00)
Language:

USA 200 - Orbit

View from above orbital plane
View from above orbital plane
View from above satellite
View from above satellite

Ground track
Ground track

The orbit data is extracted from the following two-line orbital elements,

1 32706U 08010A   15158.60552144 -.00000335  00000-0  00000-0 0    09
2 32706  63.1165  84.7604 7023715 268.1477  17.4207  2.00613637    00
Epoch (UTC): 07 June 2015 14:31:57
Eccentricity: 0.7023715
inclination: 63.1165°
perigee height: 1525 km
apogee height: 38829 km
right ascension of ascending node: 84.7604°
argument of perigee: 268.1477°
revolutions per day: 2.00613637
mean anomaly at epoch: 17.4207°
orbit number at epoch: 0

The dashed part of the orbit path shows where the satellite is in the earth's shadow,  

DLR